Vorticity
7 10 11 10 10 9 10 10 9 9 9 11 12 10 6 4 5 5 5 4 3 4 6 5 6 7 8 9 10 11 10 8 7 7 8 7 7 8 8 9 9 10 10 10 9 9 8 8 8 8 8 8 8 9 9 10 11 11 11 10 11 12 12 10 9 10 11 10 10 12 12 12 13 11
8 8 8 7 8 9 8 8 8 7 7 8 7 6 5 4 5 6 7 5 3 6 8 7 9 10 11 12 12 11 10 8 9 9 8 8 8 10 10 11 11 11 11 10 9 8 7 7 7 7 8 9 9 9 10 11 10 9 7 6 7 9 11 12 12 12 11 10 12 14 13 14 15 13
9 7 5 6 7 8 7 6 5 5 6 6 3 6 6 4 7 7 5 6 8 11 12 10 10 11 12 12 10 10 10 8 9 10 8 8 8 9 10 9 10 10 10 11 10 9 9 9 9 9 9 10 9 9 10 9 8 7 5 5 7 9 12 14 13 13 14 13 13 12 12 13 15 14
7 6 4 6 7 6 5 4 3 5 7 5 3 8 7 2 6 8 6 10 13 11 10 10 10 10 9 9 8 9 9 7 8 9 7 9 9 8 9 9 8 9 10 10 10 10 10 9 9 9 9 9 8 8 8 8 8 7 6 7 8 11 14 14 12 12 14 14 13 11 11 13 12 13
7 7 6 9 8 5 3 5 7 5 4 7 8 11 11 6 8 10 8 10 10 8 10 10 10 8 6 7 8 9 9 9 9 8 7 10 12 11 11 10 10 10 10 10 10 10 9 9 9 9 9 8 8 9 8 9 9 8 9 9 10 13 14 12 10 11 12 13 14 12 13 14 12 11
7 7 8 10 11 9 4 6 13 7 6 18 15 5 8 10 9 10 8 7 7 9 10 9 7 7 6 7 8 9 12 14 12 10 10 13 14 14 14 15 15 15 14 13 12 11 11 11 10 10 10 10 9 9 10 10 10 10 10 10 11 14 12 12 14 12 10 12 13 13 14 15 13 12
13 9 8 10 12 12 5 6 17 13 13 23 8 -8 4 11 8 9 8 8 10 10 9 9 8 7 6 7 9 12 15 14 10 11 14 15 14 15 17 17 18 20 20 18 16 15 14 12 12 11 11 11 11 10 10 10 10 10 10 10 11 12 12 15 16 9 5 11 13 12 14 14 13 13
18 15 12 11 10 10 7 9 16 13 12 14 -0 -10 3 8 6 9 9 9 12 12 11 10 8 7 7 9 10 12 12 9 6 8 12 13 11 12 14 14 15 18 19 17 16 15 14 12 11 12 12 12 12 12 12 11 10 10 9 9 10 11 12 14 15 11 9 11 12 11 12 12 11 11
16 18 18 17 14 14 15 13 12 10 8 6 -1 -3 3 7 10 13 11 10 11 10 10 10 9 9 10 10 9 9 8 6 5 5 7 9 8 7 9 10 11 13 14 14 13 14 12 10 10 10 11 12 12 13 13 12 12 11 10 10 10 11 12 11 14 14 9 7 9 10 9 8 8 8
16 16 17 18 17 17 17 13 12 12 7 1 -0 1 4 10 15 14 11 10 9 8 9 11 12 10 7 6 5 5 5 4 4 6 5 5 5 6 7 8 9 10 11 12 12 13 11 10 9 8 8 9 10 11 12 11 12 11 11 12 11 12 13 12 12 12 8 8 9 8 6 6 7 7
18 17 16 16 16 17 17 12 10 11 7 3 2 2 6 11 13 12 11 10 9 11 12 12 11 6 3 3 3 2 4 3 3 4 4 2 2 4 5 7 9 9 9 12 13 12 11 10 10 9 8 9 10 11 13 13 13 12 11 12 11 12 14 13 12 11 9 9 9 7 6 6 6 7
18 18 16 15 16 19 18 11 9 11 10 8 5 3 8 14 12 8 9 10 13 15 13 10 7 4 2 2 1 1 1 1 1 1 2 2 2 3 3 5 8 8 7 12 16 15 14 14 14 12 10 9 9 10 12 14 15 14 12 11 11 12 14 14 14 13 11 11 12 10 7 6 7 8
16 16 15 15 16 19 19 13 10 12 12 9 6 6 13 16 12 8 9 12 14 14 11 8 6 3 2 1 0 1 1 -0 0 0 0 1 2 3 3 3 5 5 4 7 13 15 14 14 15 13 10 8 9 10 12 14 14 13 12 11 12 13 14 14 14 14 12 13 12 9 7 9 11 9
13 16 15 15 15 15 16 14 12 12 12 12 10 11 14 15 13 12 13 13 12 11 8 6 5 3 2 2 0 1 1 -0 -0 -0 0 1 2 4 4 2 2 4 4 5 8 10 12 12 13 14 13 11 12 13 13 12 12 11 11 12 13 14 15 15 14 14 13 12 11 10 11 11 10 10
9 14 15 14 15 14 12 13 15 15 15 15 15 14 14 14 14 13 12 10 9 8 6 5 4 2 1 2 1 1 1 0 -1 0 1 1 2 3 3 2 2 3 4 5 5 7 11 12 13 16 16 13 12 13 11 9 9 10 11 13 14 15 15 15 14 13 12 12 12 11 12 12 10 11
4 7 10 11 13 14 11 9 10 12 14 14 15 15 15 15 14 11 8 7 5 4 4 3 3 2 2 2 2 1 2 1 -0 1 2 1 2 3 3 3 3 3 4 4 4 6 8 9 11 15 17 14 12 12 10 7 8 10 12 14 15 14 15 15 14 13 13 13 14 13 13 13 13 12
3 4 6 6 8 11 11 10 8 7 10 12 12 12 12 11 10 8 6 5 3 2 3 3 2 2 3 2 2 2 2 2 2 3 3 4 4 4 3 3 3 3 4 4 3 4 5 5 6 11 15 16 14 11 9 7 8 10 11 13 15 15 15 15 14 14 14 14 14 14 13 13 13 13
4 4 3 4 4 5 7 10 10 8 7 7 6 6 6 5 5 5 4 3 2 1 1 2 2 2 3 2 2 3 2 3 3 4 4 5 6 6 5 4 3 2 3 3 3 4 4 4 4 7 12 16 15 12 9 8 9 11 12 13 15 16 15 14 13 13 12 12 12 12 12 12 12 12
5 5 4 4 4 4 5 5 7 8 6 4 3 2 2 3 3 4 4 3 3 2 2 2 3 3 3 3 3 3 3 4 4 5 6 6 6 7 8 7 6 5 3 3 3 4 4 4 4 4 7 13 16 14 10 8 9 12 13 13 14 15 13 12 11 10 9 10 11 11 11 10 9 9
4 4 4 5 4 4 5 4 3 5 4 3 2 1 0 1 2 2 3 3 2 2 2 3 4 4 4 4 4 5 4 4 5 5 6 6 6 7 8 8 8 7 6 5 4 5 4 4 4 4 5 9 14 16 12 9 10 12 12 12 11 12 12 11 10 10 10 10 10 9 9 9 9 9
3 4 3 5 5 4 5 5 3 3 3 3 2 2 1 1 1 2 2 3 3 3 2 2 3 4 4 4 5 5 5 5 6 6 6 5 6 6 7 7 7 8 9 7 6 5 5 6 5 5 5 6 10 14 14 10 10 11 10 10 10 10 11 12 10 9 9 8 9 8 8 8 8 9
4 4 3 3 4 5 5 6 5 3 4 4 2 2 2 2 2 2 2 2 3 3 3 3 3 4 4 4 4 5 5 5 6 6 6 4 4 6 7 7 6 8 9 8 7 6 7 8 7 5 5 5 7 12 14 12 10 9 8 8 9 10 10 10 9 8 7 7 7 7 6 6 7 8
4 4 5 4 4 5 5 6 6 5 5 4 3 3 4 3 4 3 2 3 4 5 4 3 4 4 4 4 4 4 5 5 5 6 5 4 4 4 5 5 5 6 7 7 7 7 7 9 10 7 5 5 5 9 13 13 11 9 8 7 7 9 10 9 7 6 6 6 6 5 5 5 5 7
5 4 5 5 4 5 5 6 6 5 3 3 3 5 5 5 4 4 4 4 4 5 5 5 6 7 6 5 5 5 4 4 4 5 4 2 2 2 3 3 3 3 5 6 6 6 5 7 9 10 8 6 5 6 10 13 12 10 9 8 6 7 9 10 9 7 6 6 5 4 4 4 4 5
6 5 5 5 5 5 6 7 7 7 5 3 2 4 4 3 4 5 5 5 6 6 6 6 7 6 5 5 5 5 5 4 4 6 4 2 1 1 1 2 3 4 4 5 6 6 5 5 7 9 11 10 9 7 6 8 11 11 10 9 8 6 5 5 7 8 8 8 6 5 4 4 4 4
6 6 5 4 5 5 4 5 6 7 7 5 4 5 4 3 4 5 5 7 8 7 5 5 6 6 6 7 7 7 6 4 4 5 3 2 1 0 1 2 4 6 6 4 5 6 5 5 6 7 10 11 11 10 7 5 7 9 10 11 11 10 8 5 3 4 6 7 8 8 7 6 5 5
5 5 5 4 6 6 5 5 5 5 6 7 6 6 5 4 4 5 5 5 5 4 4 6 7 6 7 9 10 10 9 7 7 6 4 3 2 0 2 3 4 7 8 6 6 7 6 6 5 6 7 7 10 12 12 9 7 6 8 9 10 11 12 12 9 6 4 5 6 7 8 8 7 5
5 5 5 4 4 5 6 7 7 6 6 6 5 5 5 5 4 4 3 4 4 5 6 6 5 5 7 8 9 11 11 11 9 7 5 5 3 2 4 6 6 7 8 7 7 8 8 7 6 6 5 5 7 8 10 12 11 9 8 7 7 9 10 12 14 13 10 8 6 6 7 8 8 7
7 6 5 5 5 6 7 6 7 7 6 5 6 6 5 6 7 6 6 7 7 7 6 6 7 7 7 9 10 12 14 14 11 9 7 5 4 5 7 8 7 7 8 10 10 9 9 9 8 7 6 5 6 6 7 9 11 13 13 10 7 7 7 9 11 12 12 13 10 8 7 7 7 8
6 6 5 5 5 4 4 4 5 6 7 6 7 7 6 7 7 7 7 8 7 8 7 7 8 8 8 11 13 15 16 16 14 11 9 7 6 7 8 9 8 8 10 13 13 11 10 10 10 9 7 6 6 6 5 6 7 11 14 12 9 8 8 8 9 9 10 12 12 11 10 8 7 8
6 6 3 4 5 4 4 6 6 6 7 8 7 6 7 7 6 7 9 8 8 8 8 7 7 9 10 11 13 15 17 18 16 12 11 10 8 8 10 12 11 11 11 12 13 12 11 11 11 11 9 7 7 6 5 5 7 9 12 12 11 9 8 8 10 9 9 10 12 12 11 9 9 8
2 3 4 4 6 6 5 6 6 6 7 8 8 8 9 6 5 8 9 8 7 7 8 10 10 9 9 9 10 13 16 17 16 14 12 10 8 9 13 14 12 11 11 10 11 12 11 11 12 11 10 9 8 6 4 4 6 8 10 10 11 10 8 8 9 9 9 10 11 11 10 9 10 9
9 8 8 7 7 9 8 6 6 6 6 8 8 8 9 8 8 10 9 6 7 8 9 10 8 4 5 8 9 11 13 14 14 12 11 11 12 14 15 15 13 12 12 12 12 11 12 13 13 11 10 9 8 7 5 4 5 7 8 9 10 10 10 9 9 8 8 9 11 11 11 11 9 9
17 10 8 8 5 4 3 3 6 8 8 10 9 8 10 11 10 11 9 5 4 5 6 6 3 1 5 8 10 12 14 12 10 10 11 14 15 11 7 5 6 8 10 12 12 10 12 14 15 14 13 11 10 9 6 5 6 6 7 8 8 9 11 11 10 9 8 8 10 11 12 12 11 9
13 5 6 9 6 6 7 7 9 10 8 8 10 9 10 12 10 9 9 7 5 6 7 6 4 4 7 9 13 16 14 8 8 11 13 13 8 -1 -8 -10 -7 -2 4 8 10 10 11 11 13 14 14 13 13 11 6 6 10 9 6 6 6 8 11 12 10 10 10 9 10 11 11 12 11 10
19 16 18 18 13 12 13 11 10 11 8 8 11 10 7 7 6 6 6 5 4 6 7 6 4 6 9 11 15 20 20 15 13 11 9 5 -1 -8 -10 -11 -9 -4 2 4 7 10 12 11 11 13 13 14 15 10 3 4 12 12 7 6 6 5 8 11 11 11 10 9 10 11 11 12 12 11
18 14 12 17 17 14 14 11 10 9 6 5 8 9 8 6 4 3 3 3 4 5 6 6 6 8 9 11 12 13 12 10 8 8 8 5 -2 -6 -6 -7 -5 0 3 4 7 11 13 12 11 12 13 13 13 11 6 5 11 14 10 7 6 4 6 10 12 11 10 9 10 11 11 10 11 11
9 5 -1 4 11 12 11 11 9 7 6 6 7 8 7 6 4 3 3 1 1 4 7 9 10 9 9 10 10 8 4 -1 -3 1 7 7 3 -2 -6 -8 -2 4 3 3 8 12 12 12 10 10 11 9 10 16 15 7 7 14 14 9 6 5 5 8 10 10 11 11 10 10 11 11 10 11
4 8 1 -1 4 7 8 11 15 13 7 5 9 11 11 8 5 5 3 1 5 13 20 20 15 12 12 12 10 11 9 1 -8 -8 -3 2 6 -0 -13 -14 0 7 1 2 10 13 12 12 9 7 9 9 11 16 14 8 10 17 15 8 6 7 7 9 9 9 11 13 10 6 7 10 12 12
6 14 9 5 7 12 14 16 19 19 13 9 9 9 7 6 6 7 7 9 12 18 21 19 12 8 8 10 10 11 10 3 -4 -5 -4 -0 5 1 -10 -8 5 7 1 5 15 16 12 10 8 7 10 11 10 12 12 13 17 14 7 6 11 11 8 7 7 6 10 13 11 4 2 6 11 13
14 16 15 11 8 11 12 7 2 5 9 9 8 9 13 16 17 15 12 11 10 9 9 7 -1 -9 -8 1 9 12 10 7 4 3 -0 -1 4 6 5 7 8 4 3 12 18 15 11 10 10 10 12 12 11 11 14 18 18 11 6 8 13 13 10 7 6 6 8 11 12 8 3 4 10 12
14 10 12 16 14 10 10 9 7 9 14 15 14 17 20 17 11 9 9 9 8 8 6 2 -5 -9 -5 4 10 8 6 8 7 4 2 5 7 8 9 10 6 3 9 18 17 12 10 11 11 11 11 12 11 10 13 17 18 15 14 13 12 13 13 9 6 6 6 7 11 11 5 1 5 9
13 8 9 19 20 9 3 8 9 7 12 18 16 9 3 -2 -0 7 12 13 12 10 7 5 7 9 11 13 11 6 3 4 4 2 3 7 7 3 3 5 6 9 15 17 13 10 11 11 10 9 9 9 7 6 10 16 16 16 17 14 9 8 9 9 9 10 7 6 10 11 8 4 4 6
12 12 14 22 24 14 7 11 10 2 3 12 14 10 7 6 6 6 6 7 8 8 8 9 11 10 7 6 6 4 1 0 3 4 4 4 5 4 4 7 12 16 16 13 11 11 10 8 7 7 8 9 7 7 10 13 13 16 18 14 7 4 6 12 14 9 5 6 6 6 10 12 9 6
13 17 19 22 22 12 5 10 16 15 12 12 11 8 6 3 -2 -3 -0 3 4 5 8 9 7 6 5 5 5 4 3 5 10 11 6 3 5 8 10 13 15 15 13 10 10 10 8 8 8 8 10 12 11 10 11 13 14 17 18 14 11 10 10 11 8 2 3 7 3 1 15 25 14 2
Height
5791 5792 5793 5793 5793 5792 5792 5792 5793 5794 5795 5796 5798 5799 5799 5799 5800 5801 5802 5802 5802 5803 5803 5803 5802 5802 5801 5802 5802 5802 5802 5800 5799 5798 5797 5796 5795 5793 5792 5791 5790 5789 5788 5787 5786 5785 5784 5782 5781 5780 5779 5778 5777 5776 5774 5773 5771 5770 5769 5767 5766 5764 5763 5762 5761 5759 5758 5757 5755 5754 5753 5753 5752 5751
5790 5790 5790 5790 5789 5789 5790 5791 5792 5792 5793 5795 5796 5797 5798 5798 5799 5800 5800 5801 5801 5801 5801 5800 5800 5799 5799 5800 5800 5800 5800 5798 5797 5796 5795 5793 5792 5791 5790 5789 5788 5787 5786 5785 5784 5783 5782 5780 5779 5778 5777 5776 5775 5774 5772 5771 5770 5768 5767 5765 5764 5762 5761 5760 5758 5757 5756 5755 5753 5752 5751 5750 5750 5749
5788 5787 5787 5787 5788 5788 5789 5789 5790 5791 5792 5793 5794 5796 5797 5797 5797 5798 5799 5799 5799 5799 5799 5798 5798 5798 5798 5798 5798 5798 5797 5796 5796 5795 5793 5792 5790 5789 5788 5787 5786 5785 5784 5783 5782 5781 5780 5778 5777 5776 5775 5774 5773 5772 5770 5769 5768 5766 5765 5764 5762 5760 5759 5757 5755 5754 5753 5752 5751 5749 5748 5748 5747 5746
5786 5786 5786 5786 5786 5787 5787 5788 5788 5790 5791 5792 5793 5795 5796 5796 5796 5796 5797 5798 5797 5797 5797 5796 5796 5796 5796 5796 5796 5796 5795 5795 5794 5793 5791 5790 5789 5787 5786 5785 5784 5783 5782 5781 5780 5779 5778 5776 5775 5774 5773 5772 5770 5769 5768 5767 5765 5764 5763 5762 5760 5758 5756 5755 5753 5752 5751 5750 5748 5747 5746 5746 5745 5744
5785 5785 5784 5785 5785 5786 5786 5787 5788 5789 5790 5791 5791 5793 5794 5794 5794 5794 5795 5795 5795 5795 5795 5795 5794 5794 5794 5794 5794 5795 5794 5793 5793 5791 5789 5788 5787 5785 5784 5783 5781 5780 5779 5779 5778 5777 5775 5774 5773 5772 5770 5769 5768 5767 5766 5764 5763 5762 5761 5759 5758 5756 5754 5752 5751 5749 5748 5747 5746 5744 5744 5744 5743 5742
5782 5783 5783 5784 5784 5785 5786 5787 5787 5788 5789 5790 5790 5791 5792 5792 5792 5792 5793 5794 5794 5794 5794 5794 5794 5793 5793 5793 5793 5793 5793 5792 5791 5790 5788 5786 5785 5784 5782 5780 5779 5778 5777 5776 5775 5774 5772 5771 5770 5769 5768 5767 5766 5765 5763 5762 5761 5760 5758 5757 5755 5753 5751 5749 5748 5747 5746 5745 5744 5742 5742 5741 5740 5739
5780 5780 5781 5781 5782 5783 5784 5785 5785 5786 5788 5788 5788 5789 5790 5790 5791 5790 5791 5792 5793 5793 5793 5793 5793 5792 5792 5792 5792 5791 5791 5791 5790 5788 5787 5786 5784 5782 5780 5779 5777 5776 5775 5774 5773 5771 5770 5769 5767 5766 5766 5765 5764 5762 5761 5760 5758 5757 5756 5754 5752 5751 5749 5747 5746 5745 5744 5743 5742 5741 5740 5739 5738 5737
5778 5778 5779 5779 5780 5781 5782 5783 5783 5784 5785 5786 5787 5787 5788 5788 5789 5789 5789 5790 5791 5792 5792 5792 5792 5791 5790 5790 5790 5789 5789 5789 5788 5787 5785 5784 5782 5780 5779 5777 5776 5774 5773 5772 5770 5769 5767 5766 5765 5764 5763 5762 5761 5760 5759 5758 5756 5755 5753 5751 5750 5748 5746 5745 5744 5743 5742 5741 5740 5739 5738 5737 5736 5735
5775 5776 5777 5778 5778 5779 5780 5781 5781 5782 5783 5784 5785 5785 5786 5786 5787 5788 5788 5788 5789 5790 5790 5791 5790 5790 5789 5789 5788 5788 5788 5787 5786 5785 5784 5782 5781 5779 5778 5776 5775 5773 5772 5770 5769 5767 5766 5764 5763 5762 5761 5760 5759 5758 5757 5755 5754 5753 5751 5749 5748 5746 5744 5743 5741 5740 5740 5739 5738 5737 5736 5735 5735 5734
5773 5773 5774 5775 5776 5777 5778 5779 5780 5781 5781 5782 5783 5783 5784 5784 5786 5786 5786 5786 5787 5787 5788 5788 5788 5788 5787 5787 5787 5787 5787 5786 5785 5784 5783 5781 5780 5778 5777 5776 5774 5772 5771 5769 5768 5766 5764 5762 5761 5760 5759 5758 5757 5756 5755 5753 5752 5750 5749 5747 5746 5744 5742 5741 5739 5738 5737 5736 5735 5735 5734 5733 5733 5732
5771 5772 5772 5773 5774 5774 5776 5777 5778 5779 5780 5780 5781 5782 5782 5782 5784 5785 5785 5785 5785 5786 5786 5786 5786 5786 5786 5786 5786 5786 5785 5784 5783 5783 5782 5781 5779 5778 5776 5775 5773 5772 5770 5768 5767 5765 5763 5761 5760 5759 5758 5757 5756 5755 5753 5751 5750 5748 5747 5745 5744 5742 5740 5739 5737 5736 5735 5734 5733 5733 5732 5731 5731 5730
5770 5770 5771 5771 5772 5773 5774 5775 5776 5777 5778 5779 5780 5780 5780 5781 5782 5783 5783 5783 5784 5784 5785 5785 5785 5785 5784 5785 5785 5784 5784 5783 5782 5781 5780 5780 5779 5777 5775 5774 5773 5771 5769 5768 5766 5764 5762 5760 5759 5758 5756 5755 5753 5752 5751 5750 5748 5746 5745 5743 5742 5740 5738 5737 5736 5734 5733 5732 5731 5731 5730 5729 5728 5727
5769 5769 5769 5769 5770 5771 5772 5773 5774 5776 5777 5778 5778 5778 5779 5779 5780 5780 5781 5781 5782 5783 5784 5784 5784 5784 5783 5783 5783 5783 5782 5782 5781 5780 5779 5779 5778 5776 5774 5773 5772 5771 5769 5767 5765 5763 5761 5759 5757 5756 5754 5753 5751 5750 5749 5747 5746 5744 5743 5741 5740 5738 5736 5735 5734 5733 5731 5730 5729 5729 5728 5727 5726 5725
5768 5768 5768 5768 5769 5770 5771 5772 5773 5774 5775 5776 5776 5777 5777 5778 5778 5779 5779 5780 5781 5782 5783 5783 5784 5783 5783 5782 5782 5782 5781 5781 5780 5779 5778 5778 5777 5775 5773 5772 5771 5769 5767 5765 5764 5762 5760 5758 5756 5755 5753 5752 5750 5748 5746 5745 5744 5742 5741 5739 5737 5736 5734 5733 5732 5731 5730 5728 5728 5727 5726 5725 5724 5723
5767 5768 5767 5767 5768 5768 5769 5770 5771 5772 5773 5774 5775 5775 5776 5776 5777 5778 5779 5779 5780 5781 5782 5782 5782 5782 5782 5781 5780 5780 5780 5779 5778 5778 5777 5776 5775 5774 5772 5771 5769 5767 5766 5764 5763 5761 5759 5757 5755 5754 5753 5751 5748 5747 5745 5744 5742 5741 5739 5737 5736 5734 5733 5731 5730 5729 5728 5727 5726 5725 5724 5723 5722 5721
5765 5766 5766 5766 5767 5767 5767 5768 5769 5770 5771 5772 5773 5774 5774 5775 5776 5777 5778 5778 5779 5780 5780 5781 5781 5781 5780 5780 5779 5779 5778 5777 5777 5776 5775 5775 5774 5773 5772 5770 5767 5766 5765 5763 5762 5760 5759 5756 5754 5752 5751 5749 5747 5745 5744 5742 5741 5739 5737 5736 5734 5732 5731 5730 5729 5727 5726 5725 5724 5723 5722 5721 5720 5719
5763 5763 5764 5764 5765 5765 5766 5766 5767 5768 5769 5770 5771 5772 5773 5774 5775 5776 5776 5777 5778 5778 5778 5778 5778 5779 5779 5778 5777 5777 5776 5776 5775 5774 5774 5773 5772 5772 5770 5768 5766 5765 5764 5762 5761 5759 5758 5755 5752 5750 5749 5747 5745 5744 5742 5741 5739 5737 5736 5734 5733 5731 5730 5728 5727 5726 5725 5724 5722 5721 5721 5720 5719 5718
5761 5761 5762 5762 5763 5763 5764 5765 5765 5766 5767 5768 5770 5771 5772 5772 5773 5774 5775 5775 5776 5776 5776 5776 5776 5777 5776 5776 5775 5775 5774 5773 5773 5772 5772 5771 5770 5770 5768 5767 5765 5764 5762 5761 5759 5757 5756 5754 5751 5749 5747 5746 5744 5742 5741 5739 5738 5736 5734 5733 5731 5730 5729 5727 5726 5725 5724 5723 5722 5721 5720 5719 5718 5716
5758 5759 5760 5760 5761 5761 5762 5762 5763 5764 5765 5766 5767 5769 5770 5771 5771 5772 5773 5773 5774 5774 5774 5775 5775 5775 5774 5774 5773 5772 5772 5771 5771 5770 5769 5769 5768 5767 5766 5765 5763 5762 5760 5759 5757 5755 5754 5752 5750 5748 5746 5744 5743 5741 5739 5738 5736 5735 5733 5731 5730 5729 5728 5726 5725 5724 5723 5722 5721 5720 5719 5718 5717 5715
5756 5757 5758 5759 5759 5760 5760 5760 5761 5762 5763 5764 5765 5766 5767 5768 5769 5770 5770 5771 5771 5772 5772 5772 5772 5772 5772 5771 5770 5770 5770 5769 5769 5768 5767 5766 5765 5765 5764 5763 5761 5760 5758 5756 5755 5753 5752 5750 5748 5746 5745 5743 5741 5740 5738 5737 5735 5733 5732 5730 5729 5728 5727 5726 5724 5723 5722 5721 5720 5719 5718 5717 5715 5714
5753 5754 5756 5757 5758 5758 5759 5759 5759 5759 5760 5761 5762 5762 5764 5765 5766 5767 5767 5768 5769 5769 5769 5769 5769 5769 5769 5768 5767 5767 5767 5767 5766 5765 5764 5763 5762 5762 5761 5760 5759 5757 5756 5754 5752 5751 5750 5748 5746 5745 5743 5741 5740 5738 5737 5735 5734 5732 5730 5729 5728 5727 5726 5725 5724 5723 5721 5720 5719 5718 5717 5716 5714 5713
5750 5751 5753 5754 5756 5757 5757 5758 5758 5758 5758 5758 5759 5760 5761 5762 5763 5763 5764 5765 5765 5766 5766 5766 5766 5766 5766 5765 5764 5764 5764 5764 5764 5763 5761 5760 5759 5758 5758 5757 5756 5755 5754 5752 5750 5748 5747 5746 5744 5743 5741 5739 5738 5737 5735 5734 5732 5731 5729 5728 5726 5725 5724 5724 5723 5722 5720 5719 5718 5717 5716 5714 5713 5711
5747 5748 5749 5751 5752 5754 5755 5756 5757 5757 5757 5757 5757 5758 5758 5759 5759 5760 5761 5762 5762 5763 5763 5763 5763 5763 5763 5762 5761 5761 5761 5761 5760 5760 5758 5757 5756 5755 5755 5754 5753 5752 5751 5750 5748 5746 5744 5743 5742 5741 5739 5738 5736 5735 5733 5732 5730 5729 5728 5726 5725 5724 5723 5722 5721 5720 5719 5718 5716 5715 5714 5712 5711 5709
5744 5745 5746 5747 5748 5750 5752 5754 5755 5755 5756 5756 5757 5757 5757 5756 5756 5757 5758 5759 5759 5760 5760 5760 5760 5760 5760 5759 5759 5758 5758 5758 5757 5756 5755 5754 5752 5751 5751 5751 5750 5749 5748 5747 5746 5744 5742 5741 5740 5738 5737 5736 5735 5733 5732 5730 5728 5727 5726 5724 5723 5722 5721 5720 5719 5718 5717 5716 5715 5713 5712 5710 5709 5708
5741 5741 5742 5743 5744 5746 5748 5750 5752 5753 5754 5755 5756 5756 5755 5754 5754 5754 5755 5755 5756 5756 5757 5756 5756 5756 5756 5756 5755 5755 5755 5754 5754 5753 5752 5750 5749 5748 5747 5747 5746 5746 5745 5744 5743 5742 5740 5739 5737 5736 5735 5734 5733 5731 5730 5728 5726 5725 5723 5722 5721 5720 5719 5718 5717 5716 5715 5714 5712 5711 5709 5708 5707 5706
5737 5738 5738 5739 5740 5742 5744 5746 5748 5750 5751 5752 5753 5753 5752 5752 5752 5752 5751 5752 5752 5753 5753 5753 5752 5752 5752 5751 5751 5751 5750 5750 5750 5750 5748 5747 5746 5745 5744 5743 5742 5742 5741 5740 5739 5739 5738 5736 5735 5734 5732 5731 5730 5729 5728 5726 5724 5722 5721 5719 5718 5717 5716 5716 5715 5714 5713 5712 5710 5709 5707 5706 5705 5703
5733 5734 5735 5736 5737 5738 5740 5742 5744 5746 5747 5748 5748 5748 5748 5749 5749 5749 5748 5748 5748 5748 5748 5748 5748 5747 5747 5747 5746 5746 5746 5746 5747 5746 5744 5743 5742 5742 5741 5740 5739 5738 5738 5737 5736 5735 5734 5733 5732 5730 5729 5728 5727 5726 5725 5724 5722 5720 5718 5717 5716 5714 5713 5712 5711 5710 5710 5709 5708 5706 5705 5703 5702 5701
5729 5731 5732 5733 5734 5735 5736 5738 5739 5741 5743 5744 5744 5744 5744 5744 5745 5745 5744 5744 5744 5743 5744 5743 5743 5742 5742 5742 5741 5741 5741 5742 5742 5741 5740 5740 5739 5738 5737 5736 5735 5735 5734 5734 5732 5731 5730 5729 5728 5727 5726 5724 5723 5722 5722 5721 5719 5718 5716 5714 5713 5711 5710 5708 5707 5706 5706 5705 5704 5704 5702 5700 5699 5698
5726 5727 5728 5729 5730 5731 5732 5733 5735 5737 5738 5739 5739 5740 5739 5739 5740 5740 5740 5739 5739 5739 5738 5738 5738 5737 5737 5737 5737 5737 5737 5737 5737 5736 5736 5736 5736 5735 5734 5734 5733 5731 5730 5730 5729 5727 5726 5725 5725 5724 5722 5721 5720 5719 5718 5717 5716 5715 5714 5712 5710 5709 5707 5705 5704 5702 5701 5700 5700 5700 5698 5697 5696 5695
5722 5723 5723 5724 5726 5727 5727 5729 5730 5732 5733 5734 5734 5735 5735 5735 5735 5735 5735 5735 5734 5734 5733 5733 5733 5732 5732 5733 5733 5732 5733 5733 5732 5732 5732 5732 5731 5731 5731 5731 5730 5728 5726 5725 5725 5723 5722 5721 5721 5720 5719 5718 5717 5716 5715 5713 5712 5712 5710 5709 5707 5706 5704 5702 5701 5699 5697 5696 5695 5695 5694 5693 5692 5691
5716 5717 5718 5719 5720 5722 5723 5724 5725 5726 5727 5728 5728 5729 5730 5730 5730 5730 5730 5730 5730 5729 5729 5729 5728 5728 5728 5728 5728 5728 5728 5728 5727 5727 5727 5727 5727 5727 5727 5728 5726 5724 5722 5721 5720 5720 5719 5718 5717 5716 5715 5714 5713 5712 5711 5710 5709 5708 5707 5705 5704 5702 5701 5700 5698 5696 5694 5693 5691 5690 5689 5688 5688 5687
5710 5710 5711 5713 5714 5716 5717 5719 5720 5721 5721 5722 5722 5723 5724 5725 5726 5726 5725 5725 5725 5725 5725 5725 5725 5724 5724 5724 5723 5723 5724 5723 5723 5723 5723 5723 5723 5723 5723 5724 5722 5720 5719 5718 5717 5716 5715 5714 5713 5712 5711 5710 5709 5708 5706 5705 5704 5704 5703 5701 5700 5698 5698 5697 5696 5694 5692 5690 5689 5687 5685 5684 5684 5683
5701 5702 5704 5707 5708 5710 5712 5713 5715 5716 5716 5716 5717 5718 5719 5720 5721 5721 5721 5721 5721 5721 5721 5721 5720 5720 5720 5719 5719 5719 5719 5719 5719 5718 5719 5719 5719 5719 5720 5720 5719 5718 5716 5714 5713 5712 5710 5710 5710 5709 5707 5706 5705 5704 5702 5700 5700 5700 5700 5698 5696 5694 5693 5693 5692 5691 5689 5688 5686 5684 5682 5681 5680 5679
5695 5696 5700 5702 5704 5705 5706 5708 5709 5710 5711 5711 5712 5713 5714 5715 5716 5717 5717 5716 5716 5716 5716 5716 5716 5716 5715 5715 5715 5715 5715 5715 5715 5715 5715 5715 5716 5716 5716 5716 5716 5714 5713 5712 5710 5708 5706 5706 5706 5706 5705 5703 5701 5700 5698 5696 5696 5696 5696 5695 5693 5691 5689 5688 5688 5686 5686 5684 5683 5681 5679 5678 5676 5675
5690 5692 5694 5696 5698 5699 5701 5702 5703 5704 5705 5706 5707 5708 5709 5710 5711 5711 5712 5712 5712 5712 5712 5712 5712 5711 5711 5710 5711 5711 5711 5711 5711 5711 5711 5712 5712 5711 5711 5711 5711 5710 5709 5708 5706 5704 5703 5702 5702 5702 5701 5699 5697 5695 5693 5692 5692 5692 5691 5690 5689 5687 5686 5685 5683 5682 5681 5680 5679 5677 5676 5674 5673 5671
5685 5687 5688 5690 5692 5694 5695 5697 5697 5699 5700 5701 5702 5703 5704 5705 5706 5706 5707 5707 5708 5708 5707 5707 5707 5707 5706 5706 5707 5707 5707 5707 5707 5707 5707 5707 5707 5707 5706 5706 5705 5704 5704 5703 5701 5699 5698 5698 5697 5696 5695 5693 5692 5691 5688 5686 5687 5688 5687 5685 5684 5683 5682 5681 5680 5678 5677 5676 5675 5674 5672 5671 5669 5668
5682 5683 5684 5686 5687 5688 5690 5691 5692 5693 5695 5696 5697 5698 5699 5700 5701 5701 5701 5702 5703 5702 5702 5702 5702 5702 5702 5702 5702 5702 5702 5702 5703 5703 5702 5702 5702 5701 5701 5700 5700 5699 5698 5697 5696 5695 5694 5693 5692 5691 5689 5688 5687 5686 5684 5681 5682 5683 5683 5681 5679 5678 5678 5678 5676 5674 5673 5672 5671 5670 5668 5667 5665 5664
5678 5679 5679 5681 5682 5683 5684 5686 5687 5688 5689 5691 5692 5692 5693 5694 5695 5695 5696 5697 5697 5697 5697 5697 5697 5697 5697 5697 5698 5698 5698 5698 5698 5698 5697 5697 5697 5696 5695 5695 5694 5694 5693 5692 5691 5690 5689 5687 5686 5685 5683 5682 5681 5681 5679 5676 5676 5678 5678 5676 5674 5673 5673 5673 5672 5670 5669 5668 5667 5666 5665 5663 5661 5660
5673 5674 5675 5676 5678 5679 5679 5680 5681 5682 5683 5685 5686 5687 5687 5688 5689 5689 5690 5691 5691 5691 5692 5692 5692 5692 5692 5692 5692 5692 5692 5692 5692 5692 5692 5692 5691 5690 5690 5689 5688 5688 5687 5687 5685 5684 5683 5682 5680 5679 5677 5676 5676 5676 5674 5671 5672 5674 5673 5670 5669 5668 5668 5668 5667 5666 5665 5664 5663 5662 5661 5659 5657 5656
5666 5668 5669 5671 5673 5674 5675 5675 5675 5675 5677 5679 5680 5681 5681 5681 5683 5684 5685 5685 5686 5686 5687 5687 5687 5687 5688 5687 5687 5687 5687 5687 5686 5686 5686 5685 5685 5684 5683 5683 5682 5682 5682 5681 5680 5679 5677 5676 5674 5673 5672 5671 5671 5670 5668 5667 5668 5668 5666 5664 5663 5663 5663 5663 5663 5661 5660 5659 5659 5658 5657 5655 5654 5652
5660 5662 5663 5665 5666 5668 5668 5668 5669 5670 5672 5673 5674 5674 5674 5675 5677 5679 5679 5680 5680 5681 5681 5682 5682 5682 5682 5682 5682 5681 5681 5681 5680 5680 5679 5679 5679 5678 5678 5677 5677 5677 5677 5676 5675 5673 5672 5670 5668 5667 5667 5666 5665 5664 5664 5663 5663 5662 5660 5658 5657 5657 5657 5657 5657 5656 5655 5654 5653 5653 5652 5651 5650 5649
5654 5656 5657 5658 5659 5661 5662 5663 5663 5664 5665 5666 5667 5668 5669 5670 5671 5672 5673 5673 5674 5674 5675 5676 5676 5676 5677 5676 5676 5675 5675 5675 5675 5675 5674 5674 5674 5673 5673 5672 5672 5671 5671 5670 5669 5667 5665 5664 5663 5662 5661 5661 5660 5659 5659 5659 5658 5656 5655 5653 5652 5651 5652 5652 5651 5650 5649 5648 5648 5647 5646 5646 5645 5644
5649 5651 5651 5652 5654 5656 5656 5657 5657 5658 5659 5661 5663 5664 5665 5666 5666 5667 5667 5668 5669 5669 5669 5669 5670 5670 5670 5670 5670 5670 5670 5670 5670 5670 5670 5670 5669 5668 5668 5667 5666 5665 5665 5664 5663 5661 5659 5658 5658 5657 5656 5655 5654 5654 5653 5653 5651 5650 5650 5649 5647 5645 5646 5646 5645 5644 5644 5643 5642 5642 5641 5641 5640 5639
5644 5646 5646 5647 5649 5650 5650 5651 5652 5653 5655 5657 5658 5659 5660 5661 5661 5662 5662 5663 5663 5663 5663 5664 5664 5664 5664 5664 5664 5664 5664 5664 5665 5665 5664 5664 5663 5663 5662 5661 5660 5659 5658 5657 5656 5655 5653 5652 5652 5651 5650 5649 5647 5647 5647 5646 5645 5644 5645 5645 5643 5640 5640 5640 5640 5638 5638 5637 5637 5637 5636 5635 5634 5633
5638 5639 5639 5640 5641 5642 5643 5645 5647 5648 5650 5651 5652 5653 5655 5655 5656 5656 5657 5657 5658 5658 5658 5658 5658 5658 5658 5658 5658 5658 5658 5658 5658 5658 5658 5657 5656 5655 5654 5654 5653 5652 5651 5651 5650 5649 5647 5646 5645 5644 5643 5642 5641 5640 5640 5640 5639 5638 5638 5638 5637 5635 5635 5634 5633 5632 5631 5631 5631 5631 5630 5629 5628 5628